User: anonymous   Login
Location: Newark
(54.2500°N, 9.1833°E)
Time: 19:21:20
(UTC+00:00)
Language:

Transit 2A - Orbit

View from above orbital plane
View from above orbital plane
View from above satellite
View from above satellite

Ground track
Ground track

The orbit data is extracted from the following two-line orbital elements,

1    45U 60007A   19341.90643199 -.00000032 +00000-0 +18898-4 0  9995
2    45 066.6928 168.3102 0248151 095.9839 266.9599 14.33658901038235
Epoch (UTC): 07 December 2019 21:45:15
Eccentricity: 0.0248151
inclination: 66.6928°
perigee height: 602 km
apogee height: 957 km
right ascension of ascending node: 168.3102°
argument of perigee: 95.9839°
revolutions per day: 14.33658901
mean anomaly at epoch: 266.9599°
orbit number at epoch: 3823

The dashed part of the orbit path shows where the satellite is in the earth's shadow,  

DLR